| time (UTC) | temp C | wind direction | speed KPH | gust KPH | rain 1hr cm | rain 24hr cm | rain mn cm | humidity % | barometer mb |
| 20260503005309 | 21 | 229 | 0.0 | 0.0 | 0.00 | 0.00 | 0.00 | 20 | 1003.8 |
| 20260503004804 | 21 | 229 | 0.0 | 0.0 | 0.00 | 0.00 | 0.00 | 20 | 1003.9 |
| 20260503004303 | 22 | 229 | 0.0 | 0.0 | 0.00 | 0.00 | 0.00 | 20 | 1003.8 |
| 20260503003224 | 22 | 229 | 0.0 | 0.0 | 0.00 | 0.00 | 0.00 | 15 | 1003.8 |
| 20260503002711 | 22 | 229 | 0.0 | 6.4 | 0.00 | 0.00 | 0.00 | 16 | 1003.9 |
| 20260503002151 | 22 | 229 | 0.0 | 9.7 | 0.00 | 0.00 | 0.00 | 15 | 1003.9 |
| 20260503001620 | 22 | 255 | 0.0 | 19.3 | 0.00 | 0.00 | 0.00 | 14 | 1003.9 |
| 20260503001113 | 23 | 250 | 6.4 | 19.3 | 0.00 | 0.00 | 0.00 | 13 | 1003.9 |
| 20260503000115 | 23 | 239 | 0.0 | 19.3 | 0.00 | 0.00 | 0.00 | 13 | 1003.9 |
| 20260502235604 | 24 | 222 | 3.2 | 20.9 | 0.00 | 0.00 | 0.00 | 13 | 1003.9 |
| 20260502235101 | 24 | 253 | 6.4 | 22.5 | 0.00 | 0.00 | 0.00 | 12 | 1003.9 |
| 20260502234601 | 25 | 250 | 6.4 | 24.1 | 0.00 | 0.00 | 0.00 | 11 | 1004.0 |
| 20260502233558 | 24 | 236 | 9.7 | 20.9 | 0.00 | 0.00 | 0.00 | 12 | 1004.1 |
| 20260502233057 | 24 | 270 | 11.3 | 25.7 | 0.00 | 0.00 | 0.00 | 12 | 1004.0 |
| 20260502232557 | 24 | 239 | 11.3 | 38.6 | 0.00 | 0.00 | 0.00 | 11 | 1004.1 |
| 20260502232055 | 24 | 199 | 16.1 | 38.6 | 0.00 | 0.00 | 0.00 | 12 | 1004.1 |
| 20260502231556 | 24 | 202 | 17.7 | 37.0 | 0.00 | 0.00 | 0.00 | 12 | 1004.0 |
| 20260502231053 | 23 | 251 | 11.3 | 24.1 | 0.00 | 0.00 | 0.00 | 13 | 1004.1 |
| 20260502230554 | 23 | 198 | 11.3 | 27.4 | 0.00 | 0.00 | 0.00 | 14 | 1004.1 |
| 20260502230052 | 24 | 274 | 9.7 | 27.4 | 0.00 | 0.00 | 0.00 | 13 | 1004.2 |
| 20260502225551 | 24 | 247 | 9.7 | 20.9 | 0.00 | 0.00 | 0.00 | 13 | 1004.2 |
| 20260502225051 | 24 | 220 | 6.4 | 24.1 | 0.00 | 0.00 | 0.00 | 12 | 1004.2 |
| 20260502224549 | 24 | 254 | 9.7 | 24.1 | 0.00 | 0.00 | 0.00 | 13 | 1004.3 |
| 20260502222543 | 24 | 203 | 8.0 | 29.0 | 0.00 | 0.00 | 0.00 | 13 | 1004.3 |
| 20260502222043 | 23 | 209 | 3.2 | 22.5 | 0.00 | 0.00 | 0.00 | 14 | 1004.5 |
| 20260502221542 | 23 | 270 | 14.5 | 22.5 | 0.00 | 0.00 | 0.00 | 14 | 1004.6 |
| 20260502221041 | 23 | 229 | 11.3 | 24.1 | 0.00 | 0.00 | 0.00 | 15 | 1004.7 |
| 20260502220542 | 23 | 201 | 9.7 | 24.1 | 0.00 | 0.00 | 0.00 | 14 | 1004.7 |
| 20260502220037 | 23 | 248 | 9.7 | 24.1 | 0.00 | 0.00 | 0.00 | 14 | 1004.7 |
| 20260502215538 | 23 | 251 | 8.0 | 22.5 | 0.00 | 0.00 | 0.00 | 15 | 1004.8 |
| 20260502215037 | 23 | 232 | 11.3 | 19.3 | 0.00 | 0.00 | 0.00 | 15 | 1004.9 |
| 20260502214536 | 23 | 239 | 11.3 | 22.5 | 0.00 | 0.00 | 0.00 | 16 | 1005.0 |
| 20260502214034 | 23 | 254 | 9.7 | 22.5 | 0.00 | 0.00 | 0.00 | 15 | 1004.9 |
| 20260502213533 | 23 | 264 | 11.3 | 22.5 | 0.00 | 0.00 | 0.00 | 16 | 1005.0 |
| 20260502213033 | 23 | 243 | 9.7 | 22.5 | 0.00 | 0.00 | 0.00 | 16 | 1005.0 |
| 20260502212532 | 23 | 222 | 11.3 | 20.9 | 0.00 | 0.00 | 0.00 | 16 | 1005.2 |
| 20260502212031 | 23 | 196 | 14.5 | 20.9 | 0.00 | 0.00 | 0.00 | 16 | 1005.2 |
| 20260502211530 | 23 | 261 | 16.1 | 30.6 | 0.00 | 0.00 | 0.00 | 16 | 1005.3 |
| 20260502211029 | 23 | 196 | 16.1 | 30.6 | 0.00 | 0.00 | 0.00 | 16 | 1005.3 |
| 20260502210528 | 22 | 234 | 11.3 | 30.6 | 0.00 | 0.00 | 0.00 | 17 | 1005.3 |
| 20260502210028 | 22 | 174 | 11.3 | 22.5 | 0.00 | 0.00 | 0.00 | 16 | 1005.3 |
| 20260502205528 | 23 | 343 | 8.0 | 17.7 | 0.00 | 0.00 | 0.00 | 16 | 1005.4 |
| 20260502205026 | 23 | 253 | 8.0 | 20.9 | 0.00 | 0.00 | 0.00 | 16 | 1005.5 |
| 20260502204525 | 23 | 239 | 8.0 | 25.7 | 0.00 | 0.00 | 0.00 | 17 | 1005.6 |
| 20260502204024 | 23 | 195 | 9.7 | 25.7 | 0.00 | 0.00 | 0.00 | 16 | 1005.6 |
| 20260502203523 | 23 | 216 | 14.5 | 32.2 | 0.00 | 0.00 | 0.00 | 17 | 1005.6 |
| 20260502203022 | 23 | 241 | 11.3 | 32.2 | 0.00 | 0.00 | 0.00 | 17 | 1005.7 |
| 20260502202523 | 22 | 300 | 12.9 | 22.5 | 0.00 | 0.00 | 0.00 | 17 | 1005.7 |
| 20260502201519 | 22 | 223 | 8.0 | 29.0 | 0.00 | 0.00 | 0.00 | 17 | 1005.8 |
| 20260502201017 | 22 | 206 | 11.3 | 29.0 | 0.00 | 0.00 | 0.00 | 18 | 1005.8 |
| 20260502200518 | 21 | 226 | 16.1 | 27.4 | 0.00 | 0.00 | 0.00 | 18 | 1006.0 |
| 20260502200014 | 21 | 258 | 11.3 | 25.7 | 0.00 | 0.00 | 0.00 | 19 | 1006.0 |
| 20260502194511 | 21 | 240 | 16.1 | 24.1 | 0.00 | 0.00 | 0.00 | 18 | 1006.1 |
| 20260502193008 | 21 | 234 | 14.5 | 19.3 | 0.00 | 0.00 | 0.00 | 22 | 1006.3 |
| 20260502192506 | 20 | 262 | 11.3 | 17.7 | 0.00 | 0.00 | 0.00 | 22 | 1006.4 |
| 20260502192005 | 20 | 217 | 0.0 | 17.7 | 0.00 | 0.00 | 0.00 | 23 | 1006.5 |
| 20260502191504 | 20 | 208 | 3.2 | 14.5 | 0.00 | 0.00 | 0.00 | 25 | 1006.5 |
| 20260502191004 | 19 | 32 | 8.0 | 14.5 | 0.00 | 0.00 | 0.00 | 25 | 1006.5 |
| 20260502190503 | 19 | 30 | 4.8 | 14.5 | 0.00 | 0.00 | 0.00 | 25 | 1006.7 |
| 20260502190005 | 18 | 277 | 0.0 | 0.0 | 0.00 | 0.00 | 0.00 | 26 | 1006.7 |
| 20260502184954 | 18 | 277 | 0.0 | 14.5 | 0.00 | 0.00 | 0.00 | 27 | 1006.9 |
| 20260502184443 | 18 | 219 | 8.0 | 14.5 | 0.00 | 0.00 | 0.00 | 28 | 1007.0 |
| 20260502183939 | 18 | 57 | 6.4 | 11.3 | 0.00 | 0.00 | 0.00 | 26 | 1007.0 |
| 20260502183438 | 18 | 293 | 4.8 | 12.9 | 0.00 | 0.00 | 0.00 | 26 | 1007.1 |
| 20260502182435 | 18 | 327 | 9.7 | 14.5 | 0.00 | 0.00 | 0.00 | 28 | 1007.2 |
| 20260502181935 | 18 | 354 | 0.0 | 11.3 | 0.00 | 0.00 | 0.00 | 27 | 1007.2 |
| 20260502180924 | 17 | 54 | 0.0 | 14.5 | 0.00 | 0.00 | 0.00 | 28 | 1007.4 |
| 20260502180418 | 17 | 43 | 9.7 | 14.5 | 0.00 | 0.00 | 0.00 | 29 | 1007.4 |
| 20260502170225 | 13 | 7 | 0.0 | 4.8 | 0.00 | 0.00 | 0.00 | 50 | 1008.3 |
| 20260502164131 | 11 | 201 | 0.0 | 0.0 | 0.00 | 0.00 | 0.00 | 54 | 1008.6 |
| 20260502162028 | 10 | 201 | 0.0 | 0.0 | 0.00 | 0.00 | 0.00 | 57 | 1008.9 |
| 20260502161021 | 10 | 201 | 0.0 | 0.0 | 0.00 | 0.00 | 0.00 | 58 | 1009.0 |
| 20260502160517 | 10 | 201 | 0.0 | 4.8 | 0.00 | 0.00 | 0.00 | 59 | 1009.0 |
| 20260502152338 | 7 | 215 | 0.0 | 0.0 | 0.00 | 0.00 | 0.00 | 68 | 1009.5 |
| 20260502151824 | 6 | 215 | 0.0 | 0.0 | 0.00 | 0.00 | 0.00 | 70 | 1009.6 |
| 20260502151321 | 6 | 215 | 0.0 | 0.0 | 0.00 | 0.00 | 0.00 | 73 | 1009.6 |
| 20260502150753 | 6 | 215 | 0.0 | 0.0 | 0.00 | 0.00 | 0.00 | 74 | 1009.6 |
| 20260502150239 | 5 | 215 | 0.0 | 0.0 | 0.00 | 0.00 | 0.00 | 75 | 1009.7 |
| 20260502130405 | 0 | 215 | 0.0 | 0.0 | 0.00 | 0.00 | 0.00 | 87 | 1009.8 |
| 20260502123326 | 0 | 215 | 0.0 | 0.0 | 0.00 | 0.00 | 0.00 | 86 | 1009.7 |
| 20260502122819 | 0 | 215 | 0.0 | 0.0 | 0.00 | 0.00 | 0.00 | 85 | 1009.6 |
| 20260502122238 | 0 | 215 | 0.0 | 0.0 | 0.00 | 0.00 | 0.00 | 85 | 1009.7 |
| 20260502121715 | 0 | 215 | 0.0 | 0.0 | 0.00 | 0.00 | 0.00 | 85 | 1009.6 |
| 20260502121149 | 0 | 215 | 0.0 | 0.0 | 0.00 | 0.00 | 0.00 | 85 | 1009.6 |
| 20260502120637 | 0 | 215 | 0.0 | 0.0 | 0.00 | 0.00 | 0.00 | 85 | 1009.6 |
| 20260502120135 | 0 | 215 | 0.0 | 0.0 | 0.00 | 0.00 | 0.00 | 85 | 1009.6 |
| 20260502115629 | 0 | 215 | 0.0 | 0.0 | 0.00 | 0.00 | 0.00 | 86 | 1009.6 |
| 20260502115124 | 0 | 215 | 0.0 | 0.0 | 0.00 | 0.00 | 0.00 | 86 | 1009.6 |
| 20260502114619 | 0 | 215 | 0.0 | 0.0 | 0.00 | 0.00 | 0.00 | 85 | 1009.7 |
| 20260502113614 | 0 | 215 | 0.0 | 0.0 | 0.00 | 0.00 | 0.00 | 84 | 1009.7 |
| 20260502112607 | 0 | 215 | 0.0 | 0.0 | 0.00 | 0.00 | 0.00 | 84 | 1009.5 |
| 20260502112102 | 0 | 215 | 0.0 | 0.0 | 0.00 | 0.00 | 0.00 | 83 | 1009.6 |
| 20260502111600 | 1 | 215 | 0.0 | 0.0 | 0.00 | 0.00 | 0.00 | 83 | 1009.5 |
| 20260502110036 | 1 | 215 | 0.0 | 4.8 | 0.00 | 0.00 | 0.00 | 83 | 1009.5 |
| 20260502105529 | 1 | 215 | 4.8 | 4.8 | 0.00 | 0.00 | 0.00 | 83 | 1009.6 |
| 20260502105006 | 1 | 46 | 0.0 | 9.7 | 0.00 | 0.00 | 0.00 | 83 | 1009.6 |
| 20260502104446 | 1 | 46 | 0.0 | 9.7 | 0.00 | 0.00 | 0.00 | 82 | 1009.5 |
| 20260502102436 | 1 | 18 | 0.0 | 0.0 | 0.00 | 0.00 | 0.00 | 80 | 1009.5 |
| 20260502101933 | 1 | 18 | 0.0 | 0.0 | 0.00 | 0.00 | 0.00 | 80 | 1009.5 |
| 20260502101425 | 1 | 18 | 0.0 | 0.0 | 0.00 | 0.00 | 0.00 | 80 | 1009.5 |
| 20260502100923 | 1 | 18 | 0.0 | 0.0 | 0.00 | 0.00 | 0.00 | 80 | 1009.5 |
| 20260502100419 | 1 | 18 | 0.0 | 0.0 | 0.00 | 0.00 | 0.00 | 80 | 1009.5 |
| 20260502091255 | 2 | 18 | 0.0 | 0.0 | 0.00 | 0.00 | 0.00 | 78 | 1009.3 |
| 20260502090747 | 2 | 18 | 0.0 | 0.0 | 0.00 | 0.00 | 0.00 | 76 | 1009.3 |
| 20260502071525 | 5 | 18 | 0.0 | 8.0 | 0.00 | 0.00 | 0.00 | 67 | 1009.6 |
| 20260502071018 | 5 | 18 | 0.0 | 11.3 | 0.00 | 0.00 | 0.00 | 67 | 1009.6 |
| 20260502070520 | 5 | 18 | 6.4 | 11.3 | 0.00 | 0.00 | 0.00 | 67 | 1009.5 |
| 20260502070019 | 5 | 1 | 4.8 | 11.3 | 0.00 | 0.00 | 0.00 | 67 | 1009.6 |
| 20260502065501 | 5 | 59 | 0.0 | 0.0 | 0.00 | 0.00 | 0.00 | 66 | 1009.5 |
| 20260502063939 | 6 | 59 | 0.0 | 0.0 | 0.00 | 0.00 | 0.00 | 65 | 1009.5 |
| 20260502063437 | 6 | 59 | 0.0 | 0.0 | 0.00 | 0.00 | 0.00 | 64 | 1009.5 |
| 20260502062919 | 6 | 59 | 0.0 | 9.7 | 0.00 | 0.00 | 0.00 | 64 | 1009.3 |
| 20260502062414 | 6 | 59 | 0.0 | 9.7 | 0.00 | 0.00 | 0.00 | 64 | 1009.5 |
| 20260502061913 | 6 | 14 | 0.0 | 9.7 | 0.00 | 0.00 | 0.00 | 64 | 1009.3 |
| 20260502061407 | 6 | 39 | 0.0 | 9.7 | 0.00 | 0.00 | 0.00 | 64 | 1009.3 |
| 20260502060906 | 6 | 26 | 0.0 | 0.0 | 0.00 | 0.00 | 0.00 | 63 | 1009.3 |
| 20260502060405 | 6 | 26 | 0.0 | 0.0 | 0.00 | 0.00 | 0.00 | 63 | 1009.3 |
| 20260502055854 | 6 | 26 | 0.0 | 0.0 | 0.00 | 0.00 | 0.00 | 63 | 1009.2 |
| 20260502055325 | 6 | 26 | 0.0 | 4.8 | 0.00 | 0.00 | 0.00 | 63 | 1009.2 |
| 20260502054806 | 6 | 26 | 0.0 | 4.8 | 0.00 | 0.00 | 0.00 | 63 | 1009.2 |
| 20260502054303 | 6 | 26 | 0.0 | 4.8 | 0.00 | 0.00 | 0.00 | 63 | 1009.2 |
| 20260502053757 | 6 | 37 | 0.0 | 0.0 | 0.00 | 0.00 | 0.00 | 63 | 1009.1 |
| 20260502052731 | 7 | 37 | 0.0 | 0.0 | 0.00 | 0.00 | 0.00 | 61 | 1009.1 |
| 20260502052223 | 7 | 37 | 0.0 | 0.0 | 0.00 | 0.00 | 0.00 | 61 | 1009.1 |
| 20260502051654 | 7 | 37 | 0.0 | 0.0 | 0.00 | 0.00 | 0.00 | 60 | 1009.1 |
| 20260502051152 | 8 | 37 | 0.0 | 0.0 | 0.00 | 0.00 | 0.00 | 60 | 1009.2 |
| 20260502050640 | 8 | 37 | 0.0 | 0.0 | 0.00 | 0.00 | 0.00 | 59 | 1009.1 |
| 20260502050123 | 8 | 37 | 0.0 | 0.0 | 0.00 | 0.00 | 0.00 | 59 | 1009.1 |
| 20260502045545 | 8 | 37 | 0.0 | 0.0 | 0.00 | 0.00 | 0.00 | 59 | 1009.1 |
| 20260502045040 | 8 | 37 | 0.0 | 0.0 | 0.00 | 0.00 | 0.00 | 59 | 1009.0 |
| 20260502044541 | 8 | 37 | 0.0 | 0.0 | 0.00 | 0.00 | 0.00 | 58 | 1008.9 |
| 20260502044019 | 9 | 37 | 0.0 | 0.0 | 0.00 | 0.00 | 0.00 | 57 | 1008.9 |
| 20260502043518 | 9 | 37 | 0.0 | 4.8 | 0.00 | 0.00 | 0.00 | 57 | 1009.0 |
| 20260502042957 | 9 | 37 | 0.0 | 4.8 | 0.00 | 0.00 | 0.00 | 56 | 1008.9 |
| 20260502042447 | 9 | 37 | 1.6 | 4.8 | 0.00 | 0.00 | 0.00 | 56 | 1008.8 |
| 20260502041947 | 9 | 54 | 0.0 | 0.0 | 0.00 | 0.00 | 0.00 | 56 | 1008.6 |
| 20260502041437 | 9 | 54 | 0.0 | 0.0 | 0.00 | 0.00 | 0.00 | 55 | 1008.6 |
| 20260502040909 | 10 | 54 | 0.0 | 0.0 | 0.00 | 0.00 | 0.00 | 54 | 1008.5 |
| 20260502040402 | 10 | 54 | 0.0 | 0.0 | 0.00 | 0.00 | 0.00 | 53 | 1008.4 |
| 20260502035855 | 10 | 54 | 0.0 | 6.4 | 0.00 | 0.00 | 0.00 | 52 | 1008.4 |
| 20260502035349 | 10 | 54 | 0.0 | 6.4 | 0.00 | 0.00 | 0.00 | 52 | 1008.4 |
| 20260502034845 | 11 | 281 | 0.0 | 0.0 | 0.00 | 0.00 | 0.00 | 51 | 1008.3 |
| 20260502034327 | 11 | 281 | 0.0 | 8.0 | 0.00 | 0.00 | 0.00 | 51 | 1008.2 |
| 20260502033827 | 11 | 281 | 0.0 | 12.9 | 0.00 | 0.00 | 0.00 | 50 | 1008.1 |
| 20260502033301 | 11 | 281 | 0.0 | 14.5 | 0.00 | 0.00 | 0.00 | 50 | 1008.1 |
| 20260502032749 | 11 | 270 | 8.0 | 14.5 | 0.00 | 0.00 | 0.00 | 49 | 1007.9 |
| 20260502031739 | 12 | 14 | 0.0 | 8.0 | 0.00 | 0.00 | 0.00 | 47 | 1007.7 |
| 20260502031218 | 12 | 14 | 0.0 | 8.0 | 0.00 | 0.00 | 0.00 | 46 | 1007.6 |
| 20260502030709 | 12 | 358 | 0.0 | 6.4 | 0.00 | 0.00 | 0.00 | 46 | 1007.5 |
| 20260502025708 | 13 | 203 | 0.0 | 0.0 | 0.00 | 0.00 | 0.00 | 44 | 1007.2 |
| 20260502025149 | 13 | 203 | 0.0 | 0.0 | 0.00 | 0.00 | 0.00 | 43 | 1007.2 |
| 20260502024108 | 15 | 203 | 0.0 | 0.0 | 0.00 | 0.00 | 0.00 | 42 | 1007.0 |
| 20260502023606 | 15 | 203 | 0.0 | 0.0 | 0.00 | 0.00 | 0.00 | 41 | 1007.0 |
| 20260502023101 | 16 | 203 | 0.0 | 0.0 | 0.00 | 0.00 | 0.00 | 40 | 1007.0 |
| 20260502022559 | 16 | 203 | 0.0 | 0.0 | 0.00 | 0.00 | 0.00 | 40 | 1006.9 |
| 20260502022052 | 16 | 203 | 0.0 | 0.0 | 0.00 | 0.00 | 0.00 | 37 | 1006.9 |
| 20260502021552 | 17 | 203 | 0.0 | 0.0 | 0.00 | 0.00 | 0.00 | 37 | 1006.9 |
| 20260502021046 | 17 | 203 | 0.0 | 0.0 | 0.00 | 0.00 | 0.00 | 36 | 1006.9 |
| 20260502020531 | 18 | 203 | 0.0 | 0.0 | 0.00 | 0.00 | 0.00 | 33 | 1006.8 |
| 20260502020024 | 18 | 203 | 0.0 | 9.7 | 0.00 | 0.00 | 0.00 | 32 | 1006.7 |
| 20260502015524 | 19 | 203 | 0.0 | 9.7 | 0.00 | 0.00 | 0.00 | 29 | 1006.8 |
| 20260502015013 | 20 | 209 | 1.6 | 12.9 | 0.00 | 0.00 | 0.00 | 26 | 1006.7 |
| 20260502014453 | 20 | 246 | 4.8 | 14.5 | 0.00 | 0.00 | 0.00 | 24 | 1006.7 |
| 20260502013949 | 20 | 151 | 4.8 | 16.1 | 0.00 | 0.00 | 0.00 | 23 | 1006.7 |
| 20260502013449 | 21 | 225 | 9.7 | 16.1 | 0.00 | 0.00 | 0.00 | 23 | 1006.8 |
| 20260502012950 | 21 | 253 | 9.7 | 16.1 | 0.00 | 0.00 | 0.00 | 22 | 1006.8 |
| 20260502012449 | 22 | 227 | 8.0 | 19.3 | 0.00 | 0.00 | 0.00 | 22 | 1006.7 |
| 20260502011445 | 22 | 237 | 9.7 | 19.3 | 0.00 | 0.00 | 0.00 | 21 | 1006.8 |
| 20260502010946 | 22 | 246 | 14.5 | 20.9 | 0.00 | 0.00 | 0.00 | 21 | 1006.8 |
| 20260502010444 | 22 | 213 | 9.7 | 22.5 | 0.00 | 0.00 | 0.00 | 20 | 1006.7 |
| 20260502005942 | 22 | 168 | 11.3 | 24.1 | 0.00 | 0.00 | 0.00 | 20 | 1006.7 |